Location: *
(49.7115°N, 15.0136°E)
Time: 05:02:58
(UTC+00:00)

CZ-2C R/B - Pass Details

Date: 27 February 2020
Orbit: 703 x 909 km, 98.1° (Epoch: 30 March)

Event Time Altitude Azimuth Distance (km) Brightness Sun altitude
Exits shadow 17:37:37 - 137° (SE) 3,577 6.1 -10.4°
Rises 17:37:45 0° 137° (SE) 3,523 6.0 -10.4°
Reaches altitude 10° 17:40:21 10° 129° (SE) 2,576 5.3 -10.8°
Maximum altitude 17:45:33 36° 64° (ENE) 1,366 3.9 -11.7°
Drops below altitude 10° 17:50:37 10° 0° (N) 2,508 5.7 -12.5°
Sets 17:53:06 0° 352° (N) 3,419 6.5 -12.9°
